TimeCDT,TemperatureF,Dew PointF,Humidity,Sea Level PressureIn,VisibilityMPH,Wind Direction,Wind SpeedMPH,Gust SpeedMPH,PrecipitationIn,Events,Conditions,WindDirDegrees,DateUTC
12:15 AM,64.4,51.8,64,30.03,10.0,SE,8.1,-,N/A,,Clear,140,2013-06-14 05:15:00
12:35 AM,66.2,51.8,60,30.04,10.0,SSE,8.1,-,N/A,,Clear,150,2013-06-14 05:35:00
12:55 AM,68.0,51.8,56,30.05,10.0,SSE,9.2,-,N/A,,Clear,160,2013-06-14 05:55:00
1:15 AM,68.0,50.0,52,30.03,10.0,SSE,9.2,-,N/A,,Clear,150,2013-06-14 06:15:00
1:35 AM,66.2,51.8,60,30.01,10.0,SE,11.5,-,N/A,,Clear,140,2013-06-14 06:35:00
1:55 AM,66.2,51.8,60,29.99,10.0,ESE,10.4,16.1,N/A,,Scattered Clouds,120,2013-06-14 06:55:00
2:15 AM,64.4,51.8,64,29.98,10.0,SE,12.7,-,N/A,,Clear,130,2013-06-14 07:15:00
2:35 AM,64.4,51.8,64,29.98,10.0,SE,9.2,-,N/A,,Scattered Clouds,140,2013-06-14 07:35:00
2:55 AM,62.6,53.6,72,29.98,10.0,SE,9.2,-,N/A,,Scattered Clouds,140,2013-06-14 07:55:00
3:15 AM,62.6,53.6,72,29.97,10.0,ESE,9.2,-,N/A,,Scattered Clouds,120,2013-06-14 08:15:00
3:35 AM,62.6,53.6,72,29.97,10.0,ESE,8.1,-,N/A,,Clear,120,2013-06-14 08:35:00
3:55 AM,62.6,53.6,72,29.97,10.0,SE,10.4,-,N/A,,Clear,130,2013-06-14 08:55:00
4:15 AM,62.6,53.6,72,29.97,10.0,SE,10.4,-,N/A,,Clear,130,2013-06-14 09:15:00
4:35 AM,62.6,53.6,72,29.96,10.0,ESE,9.2,-,N/A,,Clear,120,2013-06-14 09:35:00
4:55 AM,62.6,53.6,72,29.96,10.0,ESE,8.1,-,N/A,,Clear,120,2013-06-14 09:55:00
5:15 AM,62.6,53.6,72,29.96,10.0,ESE,8.1,-,N/A,,Clear,120,2013-06-14 10:15:00
5:35 AM,62.6,53.6,72,29.95,10.0,ESE,8.1,-,N/A,,Clear,120,2013-06-14 10:35:00
5:55 AM,62.6,53.6,72,29.97,10.0,SE,9.2,-,N/A,,Clear,130,2013-06-14 10:55:00
6:15 AM,62.6,53.6,72,29.97,10.0,SE,9.2,-,N/A,,Scattered Clouds,130,2013-06-14 11:15:00
6:35 AM,62.6,53.6,72,29.97,10.0,ESE,10.4,-,N/A,,Overcast,120,2013-06-14 11:35:00
6:55 AM,62.6,53.6,72,29.97,10.0,SE,11.5,17.3,N/A,,Overcast,130,2013-06-14 11:55:00
7:15 AM,62.6,51.8,68,29.97,10.0,SE,12.7,-,N/A,,Scattered Clouds,130,2013-06-14 12:15:00
7:35 AM,62.6,53.6,72,29.97,10.0,SE,10.4,-,N/A,,Scattered Clouds,130,2013-06-14 12:35:00
7:55 AM,64.4,53.6,68,29.98,10.0,SE,10.4,-,N/A,,Mostly Cloudy,140,2013-06-14 12:55:00
8:15 AM,64.4,53.6,68,29.99,10.0,SE,9.2,17.3,N/A,,Overcast,130,2013-06-14 13:15:00
8:35 AM,64.4,53.6,68,29.98,10.0,SE,13.8,-,N/A,,Overcast,130,2013-06-14 13:35:00
8:55 AM,66.2,53.6,64,29.96,10.0,SE,12.7,-,N/A,,Mostly Cloudy,130,2013-06-14 13:55:00
9:15 AM,68.0,53.6,60,29.95,10.0,SE,13.8,-,N/A,,Overcast,130,2013-06-14 14:15:00
9:35 AM,68.0,53.6,60,29.93,10.0,SE,16.1,20.7,N/A,,Mostly Cloudy,130,2013-06-14 14:35:00
9:55 AM,69.8,53.6,56,29.93,10.0,SE,15.0,19.6,N/A,,Scattered Clouds,140,2013-06-14 14:55:00
10:15 AM,69.8,53.6,56,29.94,10.0,SE,15.0,21.9,N/A,,Scattered Clouds,140,2013-06-14 15:15:00
10:35 AM,69.8,53.6,56,29.93,10.0,SE,16.1,-,N/A,,Scattered Clouds,140,2013-06-14 15:35:00
10:55 AM,69.8,53.6,56,29.92,10.0,SE,17.3,21.9,N/A,,Scattered Clouds,130,2013-06-14 15:55:00
11:15 AM,69.8,53.6,56,29.90,10.0,SE,19.6,24.2,N/A,,Clear,140,2013-06-14 16:15:00
11:35 AM,69.8,55.4,60,29.89,10.0,SE,15.0,23.0,N/A,,Clear,140,2013-06-14 16:35:00
11:55 AM,73.4,55.4,53,29.90,10.0,SE,17.3,25.3,N/A,,Clear,140,2013-06-14 16:55:00
12:15 PM,75.2,55.4,50,29.89,10.0,SE,20.7,26.5,N/A,,Clear,140,2013-06-14 17:15:00
12:35 PM,77.0,53.6,44,29.83,10.0,SE,28.8,36.8,N/A,,Clear,140,2013-06-14 17:35:00
12:55 PM,77.0,53.6,44,29.86,10.0,SSE,24.2,33.4,N/A,,Scattered Clouds,150,2013-06-14 17:55:00
1:15 PM,77.0,53.6,44,29.86,10.0,SSE,24.2,32.2,N/A,,Mostly Cloudy,160,2013-06-14 18:15:00
1:35 PM,77.0,53.6,44,29.86,10.0,SSE,24.2,32.2,N/A,,Overcast,160,2013-06-14 18:35:00
1:55 PM,78.8,55.4,44,29.85,10.0,SSE,21.9,28.8,N/A,,Mostly Cloudy,150,2013-06-14 18:55:00
2:15 PM,78.8,53.6,42,29.82,10.0,SSE,24.2,29.9,N/A,,Scattered Clouds,150,2013-06-14 19:15:00
2:35 PM,80.6,53.6,39,29.81,10.0,SSE,23.0,31.1,N/A,,Clear,160,2013-06-14 19:35:00
2:55 PM,80.6,55.4,42,29.80,10.0,SSE,21.9,34.5,N/A,,Clear,150,2013-06-14 19:55:00
3:15 PM,80.6,55.4,42,29.80,10.0,SSE,21.9,32.2,N/A,,Clear,160,2013-06-14 20:15:00
3:35 PM,80.6,55.4,42,29.81,10.0,SSE,20.7,32.2,N/A,,Scattered Clouds,150,2013-06-14 20:35:00
3:55 PM,78.8,55.4,44,29.81,10.0,SSE,19.6,29.9,N/A,,Overcast,160,2013-06-14 20:55:00
4:15 PM,78.8,55.4,44,29.81,10.0,SSE,20.7,28.8,N/A,,Overcast,160,2013-06-14 21:15:00
4:35 PM,78.8,57.2,47,29.82,10.0,South,19.6,26.5,N/A,,Overcast,170,2013-06-14 21:35:00
4:55 PM,77.0,57.2,50,29.81,10.0,South,16.1,23.0,N/A,,Overcast,170,2013-06-14 21:55:00
5:15 PM,77.0,59.0,54,29.80,10.0,SSE,11.5,19.6,N/A,,Overcast,160,2013-06-14 22:15:00
5:35 PM,77.0,59.0,54,29.80,10.0,SSE,12.7,19.6,N/A,,Overcast,160,2013-06-14 22:35:00
5:55 PM,77.0,59.0,54,29.79,10.0,SE,15.0,-,N/A,,Overcast,140,2013-06-14 22:55:00
6:15 PM,77.0,59.0,54,29.79,10.0,SSE,13.8,-,N/A,,Overcast,150,2013-06-14 23:15:00
6:35 PM,77.0,59.0,54,29.78,10.0,SE,15.0,18.4,N/A,,Overcast,140,2013-06-14 23:35:00
6:55 PM,77.0,59.0,54,29.78,10.0,SE,13.8,21.9,N/A,,Overcast,130,2013-06-14 23:55:00
7:15 PM,77.0,59.0,54,29.77,10.0,SE,12.7,-,N/A,,Overcast,130,2013-06-15 00:15:00
7:35 PM,77.0,59.0,54,29.77,10.0,SE,13.8,19.6,N/A,,Overcast,130,2013-06-15 00:35:00
7:55 PM,77.0,59.0,54,29.77,10.0,ESE,15.0,19.6,N/A,,Overcast,120,2013-06-15 00:55:00
8:15 PM,75.2,59.0,57,29.77,10.0,SE,11.5,19.6,N/A,,Overcast,130,2013-06-15 01:15:00
8:35 PM,73.4,59.0,61,29.77,10.0,SE,15.0,-,N/A,,Mostly Cloudy,130,2013-06-15 01:35:00
8:55 PM,73.4,59.0,61,29.77,10.0,ESE,13.8,19.6,N/A,,Mostly Cloudy,120,2013-06-15 01:55:00
9:15 PM,73.4,59.0,61,29.77,10.0,SE,10.4,-,N/A,,Mostly Cloudy,130,2013-06-15 02:15:00
9:35 PM,73.4,59.0,61,29.78,10.0,SE,12.7,17.3,N/A,,Overcast,130,2013-06-15 02:35:00
9:55 PM,73.4,59.0,61,29.79,10.0,SE,13.8,18.4,N/A,,Mostly Cloudy,140,2013-06-15 02:55:00
10:15 PM,73.4,59.0,61,29.80,10.0,SE,19.6,24.2,N/A,,Mostly Cloudy,140,2013-06-15 03:15:00
10:35 PM,73.4,60.8,65,29.81,10.0,SSE,12.7,20.7,N/A,,Mostly Cloudy,150,2013-06-15 03:35:00
10:55 PM,73.4,60.8,65,29.81,10.0,SSE,15.0,19.6,N/A,,Scattered Clouds,160,2013-06-15 03:55:00
11:15 PM,71.6,60.8,69,29.81,10.0,SSE,16.1,21.9,N/A,,Scattered Clouds,160,2013-06-15 04:15:00
11:35 PM,71.6,60.8,69,29.81,10.0,South,12.7,18.4,N/A,,Clear,170,2013-06-15 04:35:00
11:55 PM,71.6,60.8,69,29.81,10.0,South,8.1,-,N/A,,Scattered Clouds,170,2013-06-15 04:55:00